Weather History for New Philadelphia, OH

Change the Weather History Date:

Sunday, January 20, 2013

  Actual Average Record
Temperature  
Mean Temperature 37 °F 29 °F  
Max Temperature 48 °F 37 °F 54 °F (1988)
Min Temperature 25 °F 21 °F -22 °F (1994)
Degree Days  
Heating Degree Days 28 36  
Month to date heating degree days 622 720  
Since 1 July heating degree days 2722 2881  
Cooling Degree Days 0 0  
Month to date cooling degree days 0 0  
Year to date cooling degree days 0 0  
Moisture  
Dew Point 16 °F    
Average Humidity 50    
Maximum Humidity 60    
Minimum Humidity 39    
Precipitation  
Precipitation 0.00 in 0.06 in 0.97 in (1986)
Month to date precipitation 0.58 1.75  
Year to date precipitation 0.58 1.75  
Sea Level Pressure  
Sea Level Pressure 30.05 in    
Wind  
Wind Speed 12 mph (West)    
Max Wind Speed 28 mph    
Max Gust Speed 40 mph    
Visibility 10 miles    
Events      
T = Trace of Precipitation, MM = Missing Value Source: NWS Daily Summary

Daily Weather History Graph

Daily Weather History Graph

Search for Another Location

Airport:

Trip Planner

Search our weather history database for the weather conditions in past years. The results will help you decide how hot, cold, wet, or windy it might be!

Date:

Astronomy

Jan. 20, 2013 Rise Set
Actual Time 7:44 AM EST 5:29 PM EST
Civil Twilight 7:14 AM EST 5:59 PM EST
Nautical Twilight 6:41 AM EST 6:32 PM EST
Astronomical Twilight 6:08 AM EST 7:05 PM EST
Moon 12:30 PM EST (1/20) 2:15 AM EST (1/20)
Length of Visible Light 10h 44m
Length of Day
9h 45m
Waxing Gibbous, 66% of the Moon is Illuminated
Jan 20
Waxing Gibbous
Jan 26
Full
Feb 3
Last Quarter
Feb 10
New
Feb 17
First Quarter

Hourly Weather History & Observations

Time (EST) Temp. Windchill Dew Point Humidity Pressure Visibility Wind Dir Wind Speed Gust Speed Precip Events Conditions
12:53 AM 48.0 °F - 26.1 °F 42% 29.82 in 10.0 mi SW 16.1 mph 23.0 mph N/A   Mostly Cloudy
1:53 AM 46.9 °F - 28.0 °F 48% 29.81 in 10.0 mi SW 10.4 mph 25.3 mph N/A   Clear
2:53 AM 46.9 °F - 28.9 °F 50% 29.81 in 10.0 mi WSW 18.4 mph 27.6 mph N/A   Clear
3:53 AM 46.0 °F 38.8 °F 30.0 °F 54% 29.82 in 10.0 mi WSW 18.4 mph 31.1 mph N/A   Mostly Cloudy
4:53 AM 45.0 °F 38.2 °F 25.0 °F 46% 29.83 in 10.0 mi West 15.0 mph 38.0 mph N/A   Scattered Clouds
5:53 AM 42.1 °F 33.6 °F 19.0 °F 40% 29.88 in 10.0 mi West 18.4 mph 36.8 mph N/A   Clear
6:53 AM 39.0 °F 30.6 °F 19.9 °F 46% 29.93 in 10.0 mi West 15.0 mph 23.0 mph N/A   Mostly Cloudy
7:53 AM 35.1 °F 26.4 °F 16.0 °F 46% 29.98 in 10.0 mi WNW 12.7 mph 23.0 mph N/A   Clear
8:53 AM 32.0 °F 21.6 °F 12.0 °F 44% 30.04 in 10.0 mi West 15.0 mph 32.2 mph N/A   Clear
9:53 AM 32.0 °F 22.1 °F 12.9 °F 45% 30.09 in 10.0 mi West 13.8 mph 25.3 mph N/A   Clear
10:53 AM 32.0 °F 21.2 °F 15.1 °F 50% 30.12 in 10.0 mi NW 16.1 mph 23.0 mph N/A   Mostly Cloudy
11:53 AM 30.9 °F 20.2 °F 12.0 °F 46% 30.14 in 10.0 mi WNW 15.0 mph 23.0 mph N/A   Partly Cloudy
12:53 PM 30.9 °F 20.2 °F 12.9 °F 47% 30.13 in 10.0 mi WNW 15.0 mph 20.7 mph N/A   Clear
1:53 PM 30.0 °F 19.1 °F 12.0 °F 47% 30.14 in 10.0 mi NW 15.0 mph 20.7 mph N/A   Clear
2:53 PM 30.9 °F 22.8 °F 10.9 °F 43% 30.14 in 10.0 mi WNW 9.2 mph - N/A   Clear
3:53 PM 30.0 °F 21.1 °F 10.9 °F 45% 30.14 in 10.0 mi WNW 10.4 mph - N/A   Clear
4:53 PM 28.9 °F 21.1 °F 10.9 °F 47% 30.16 in 10.0 mi West 8.1 mph - N/A   Clear
5:53 PM 27.0 °F 19.5 °F 10.9 °F 51% 30.18 in 10.0 mi West 6.9 mph - N/A   Clear
6:53 PM 27.0 °F 20.5 °F 10.9 °F 51% 30.19 in 10.0 mi West 5.8 mph - N/A   Mostly Cloudy
7:53 PM 26.1 °F 17.6 °F 12.0 °F 55% 30.20 in 10.0 mi WNW 8.1 mph - N/A   Overcast
8:53 PM 26.1 °F 18.4 °F 10.9 °F 53% 30.19 in 10.0 mi WNW 6.9 mph - N/A   Overcast
9:53 PM 25.0 °F 16.3 °F 12.0 °F 58% 30.18 in 10.0 mi WNW 8.1 mph - N/A   Overcast
10:53 PM 25.0 °F 20.7 °F 12.0 °F 58% 30.18 in 10.0 mi NW 3.5 mph - N/A   Overcast
11:53 PM 25.0 °F 17.1 °F 12.0 °F 58% 30.17 in 10.0 mi NW 6.9 mph - N/A   Overcast